Regional Weather Roundup
Issued by NWS

Home | Current Version | Previous Version | Graphics & Text | Print | Product List | Glossary On
Versions: 1 2 3 4 5 6 7 8 9 10 11 12 13 14 15 16 17 18 19 20 21 22 23 24 25 26 27
000
ASUS45 KBOU 111110
RWRCO

WEATHER ROUNDUP FOR COLORADO
NATIONAL WEATHER SERVICE DENVER/BOULDER CO
400 AM MST MON DEC 11 2017

NOTE: "FAIR" INDICATES FEW OR NO CLOUDS BELOW 12000 FEET WITH NO
SIGNIFICANT WEATHER AND/OR OBSTRUCTIONS TO VISIBILITY.

COZ001>005-013-030-031-111200-
...NORTHWEST COLORADO...

CITY           SKY/WX    TMP DP  RH WIND       PRES   REMARKS
CRAIG          FAIR       5  -1  76 CALM      30.56S
HAYDEN         FAIR      17   7  64 E13       30.55F WCI   4
MEEKER         FAIR      11   3  70 CALM      30.55S
RABBIT EARS PA FAIR      21   3  45 W12G18    30.54F WCI   9
STEAMBOAT SPGS FAIR      11   7  81 CALM      30.56S
WALDEN         FAIR       3  -6  66 SE8       30.52F WCI -10
$$

COZ006>008-011-111200-
...WEST CENTRAL VALLEYS...

CITY           SKY/WX    TMP DP  RH WIND       PRES   REMARKS
GRAND JUNCTION FAIR      18   0  45 E7        30.55S WCI   9
MONTROSE       FAIR      15  -1  49 SE6       30.59R WCI   6
EAGLE          FAIR       7   3  84 E3        30.66S
RIFLE          FAIR      15   3  59 SE5       30.58F WCI   8
DELTA          FAIR      17   1  48 CALM      30.57S
NUCLA          FAIR      19  -9  27 E7        30.56S WCI  10
$$

COZ017>023-064>068-111200-
...SOUTHWEST COLORADO...

CITY           SKY/WX    TMP DP  RH WIND       PRES   REMARKS
DURANGO        FAIR      16   0  49 N6        30.48F WCI   7
CORTEZ         FAIR       8  -2  63 CALM      30.52R
PAGOSA SPRINGS FAIR      17  -4  39 CALM      30.49S
TELLURIDE      FAIR      29  -6  21 CALM      30.56S
WOLF CREEK PAS FAIR      28  -9  19 NW5       30.63S WCI  23
$$

COZ009-010-012-014-032>034-037-058>063-111200-
...CENTRAL COLORADO...

CITY           SKY/WX    TMP DP  RH WIND       PRES   REMARKS
ASPEN          FAIR      14   1  56 S5        30.55S WCI   6
BUENA VISTA    FAIR      23  -4  31 W8        30.48F WCI  13
COPPER MTN     NOT AVBL
BERTHOUD PASS  FAIR      18   5  57 NW15G25   30.55F WCI   3
COTTONWOOD PAS FAIR      41 -20   7 W15G22    30.50F
GUNNISON       FAIR       2  -3  80 S5        30.61S WCI  -8
KREMMLING      MOCLDY     1  -4  78 CALM      30.64F HAZE
LEADVILLE      FAIR      19 -11  26 NE12      30.53S WCI   7
MONARCH PASS   FAIR      28 -13  16 NW15      30.67F WCI  17
SALIDA         FAIR      24  -4  28 NW7       30.56S WCI  16
SUNLIGHT       FAIR      28 -18  12 NW9       30.62F WCI  20
WILKERSON PASS FAIR      32 -15  12 N12G21    30.54F WCI  23
$$

COZ069>075-111200-
...SAN LUIS VALLEY/SANGRE DE CRISTO MOUNTAINS...

CITY           SKY/WX    TMP DP  RH WIND       PRES   REMARKS
ALAMOSA        FAIR       6  -4  63 CALM      30.49S
DEL NORTE      FAIR      24 -10  22 W7        30.51R WCI  15
LA VETA PASS   FAIR      27 -11  18 SW17        N/A  WCI  14
SAGUACHE       FAIR      27  -9  20 NW10      30.49F WCI  17
$$

COZ035-036-038>040-111200-
...NORTHERN COLORADO FRONT RANGE...

CITY           SKY/WX    TMP DP  RH WIND       PRES   REMARKS
DENVER INTL AP FAIR      37  -3  18 SW15      30.31F
DMNS CITY PARK NOT AVBL
AURORA         CLEAR     34  -3  20 S10       30.33F WCI  26
FRONT RANGE AP FAIR      31   0  26 S7        30.32F WCI  24
ERIE MUNI ARPT FAIR      21   9  60 SW5       30.36F WCI  14
BOULDER MUN AP FAIR      41   0  17 S6        30.30F
CENTENNIAL     FAIR      35  -1  21 SW7       30.34F WCI  29
BROOMFIELD     FAIR      41   3  20 S6        30.32F
FORT COLLINS   FAIR      34   5  29 S6        30.30F WCI  29
LONGMONT       FAIR      29   8  40 W3        30.32F
$$

COZ041-046-047-076>085-087-088-111200-
...PIKES PEAK/PALMER DIVIDE AND SOUTHERN FOOTHILLS...

CITY           SKY/WX    TMP DP  RH WIND       PRES   REMARKS
COLO. SPRINGS  FAIR      39  -3  17 N10       30.35S
A. F. ACADEMY  FAIR      24  -3  30 N14       30.36S WCI  11
SCHRIEVER AFB  FAIR      43  -6  12 N12       30.34S
CHEYENNE MTN   FAIR      45  -5  12 NW9       30.31S
ELLICOTT         N/A    N/A N/A N/A N5        30.32S
FALCON         FAIR      41  -8  12 NW12      30.37S
FORT CARSON    FAIR      39  -2  17 NW13      30.32S
LIMON          FAIR      23  -3  32 W5        30.33S WCI  17
MONUMENT HILL  FAIR      30  -2  24 W9        30.39S WCI  22
CANON CITY     FAIR      41  -2  16 W15G21    30.33F
WALSENBURG     FAIR      43  -4  14 W15       30.35S
TRINIDAD       FAIR      33   1  25 W14       30.34R WCI  23
$$

COZ042>045-048>051-090-091-111200-
...NORTHEAST COLORADO...

CITY           SKY/WX    TMP DP  RH WIND       PRES   REMARKS
GREELEY ARPT   FAIR      14   6  70 N3        30.32F
AKRON          FAIR      33  -1  23 W13       30.28F WCI  24
BURLINGTON     FAIR      28   2  32 W10       30.28R WCI  19
WRAY           FAIR      34   3  27 W13       30.25S WCI  25
YUMA           FAIR      32   3  29 W14       30.26F WCI  22
STERLING       FAIR      19   5  53 S7        30.28S WCI  10
HOLYOKE        FAIR      34   7  32 W12       30.24S WCI  25
FORT MORGAN    FAIR      22   3  45 W10       30.30F WCI  11
$$

COZ086-089-092>099-111200-
...SOUTHEAST COLORADO...

CITY           SKY/WX    TMP DP  RH WIND       PRES   REMARKS
PUEBLO         FAIR      24   4  42 W5        30.31S WCI  18
LA JUNTA       FAIR      25   3  38 W5        30.30S WCI  19
LAMAR          FAIR      19   1  45 SW10      30.27F WCI   7
SPRINGFIELD      N/A     29   4  34 NW10      30.27R WCI  20
$$




USA.gov is the U.S. government's official web portal to all federal, state and local government web resources and services.